User: anonymous   Login
Location: Possagno
(45.8500°N, 11.8667°E)
Time: 15:43:45
(UTC+00:00)
Language:

STARLINK-2719 - Orbit

View from above orbital plane
View from above orbital plane
View from above satellite
View from above satellite

Ground track
Ground track

The orbit data is extracted from the following two-line orbital elements,

1 48677C 21044AR  21296.52533145 -.00002935  00000-0 -19660-3 0  2967
2 48677  53.0549  86.0407 0001738  85.6231  23.8781 15.06409605    15
Epoch (UTC): 23 October 2021 12:36:28
Eccentricity: 0.0001738
inclination: 53.0549°
perigee height: 546 km
apogee height: 548 km
right ascension of ascending node: 86.0407°
argument of perigee: 85.6231°
revolutions per day: 15.06409605
mean anomaly at epoch: 23.8781°
orbit number at epoch: 1

The dashed part of the orbit path shows where the satellite is in the earth's shadow,  

DLR